Temperature
29 29 28 29 29 29 29 29 28 29 29 28 28 27 26 26 26 26 25 24 23 22 21 20 20 19 18 17 17 16 16 16 16 15 15 15 15 15 15 15 15 15 15 15
29 28 29 30 30 29 29 28 28 29 29 29 28 27 27 27 26 26 25 24 23 22 21 20 19 19 18 17 17 16 16 16 15 15 15 15 15 15 15 15 15 15 14 14
28 29 30 30 29 29 29 28 29 28 28 29 28 26 26 26 26 25 25 24 23 22 21 20 19 18 18 17 16 16 16 15 15 15 15 15 15 15 15 15 15 14 14 14
29 30 30 30 29 29 28 29 29 29 28 27 27 25 25 25 25 25 24 24 23 22 21 20 19 18 17 17 16 16 16 15 15 15 15 14 14 14 14 14 14 14 14 14
30 30 30 29 30 30 29 30 29 29 28 28 27 26 25 24 24 24 24 24 23 22 21 20 19 18 17 17 16 16 15 15 15 15 15 14 14 14 14 14 14 14 14 14
30 31 31 30 30 30 30 30 30 29 28 26 26 25 24 24 24 24 24 24 23 22 21 20 19 18 17 17 16 16 15 15 15 15 14 14 14 14 14 14 14 14 14 14
29 30 31 31 29 30 30 28 27 26 25 25 26 25 24 25 25 25 24 24 23 22 21 20 19 18 17 17 16 15 15 15 15 14 14 14 14 14 14 14 14 14 14 14
28 28 30 30 29 29 29 28 26 24 25 26 26 25 25 26 26 25 24 23 22 22 21 20 19 18 17 16 16 15 15 14 14 14 14 14 14 14 14 14 14 14 13 13
28 28 30 30 30 29 28 28 28 26 26 25 25 24 24 25 25 24 24 23 22 21 21 20 19 18 17 16 16 15 15 14 14 14 14 14 14 13 13 13 13 13 13 13
28 27 29 30 30 30 29 29 28 26 25 25 25 24 23 23 23 24 24 23 22 21 20 19 19 18 17 16 15 15 15 14 14 14 14 14 13 13 13 13 13 13 13 13
28 26 28 29 28 28 29 28 27 27 26 25 24 23 24 23 24 24 24 23 22 21 20 19 18 18 17 16 16 15 15 14 14 14 14 13 13 13 13 13 13 13 13 13
28 27 26 28 29 30 29 28 27 25 25 25 24 23 25 24 24 24 23 23 22 21 20 19 18 18 17 16 16 15 15 14 14 14 14 13 13 13 13 13 13 13 13 13
27 26 25 26 27 28 28 28 27 26 25 24 23 23 24 24 23 23 23 22 21 21 20 19 18 17 17 16 16 15 15 14 14 14 14 13 13 13 13 13 13 13 13 13
26 25 25 24 25 26 27 27 27 26 25 24 24 24 24 23 23 23 22 22 21 20 20 19 18 17 17 16 16 15 15 14 14 14 14 13 13 13 13 13 13 13 13 13
26 25 26 26 27 27 27 27 27 26 26 25 25 24 24 23 23 23 22 22 21 20 20 19 18 17 16 16 15 15 15 14 14 14 14 14 13 13 13 13 13 13 13 13
26 25 25 25 27 27 27 27 27 26 26 26 25 24 24 23 23 22 22 21 21 20 19 18 17 17 16 16 15 15 15 14 14 14 14 14 14 13 13 13 13 13 13 12
25 24 24 24 26 26 25 26 26 26 26 26 25 24 24 24 23 22 22 21 20 20 19 18 17 16 16 15 15 15 15 14 14 14 14 14 14 13 13 13 13 13 12 12
25 24 24 24 24 23 25 27 26 26 25 25 25 24 24 23 22 22 21 21 20 19 18 18 17 16 16 15 15 15 15 14 14 14 14 14 14 14 13 13 13 13 12 12
26 24 24 24 24 24 25 26 26 24 24 24 24 24 23 23 22 21 20 20 19 19 18 17 17 16 16 15 15 15 14 14 14 14 14 14 14 14 13 13 13 13 13 12
26 25 23 23 23 23 24 25 25 24 22 23 23 23 22 22 21 21 20 19 19 18 18 17 16 16 15 15 15 14 14 14 14 14 14 14 14 14 13 13 13 13 13 12
24 24 23 23 22 23 24 24 24 22 21 22 22 22 22 21 20 20 19 19 18 18 17 17 16 16 15 15 15 14 14 14 14 14 14 14 13 13 13 13 13 13 13 13
24 24 23 23 22 22 23 23 22 20 21 21 21 21 21 20 20 19 19 18 18 17 17 16 16 15 15 15 14 14 14 14 14 14 13 13 13 13 13 13 13 13 13 13
24 23 23 22 22 21 21 21 21 20 20 20 20 20 20 20 19 19 18 18 17 17 16 16 16 15 15 15 14 14 14 14 13 13 13 13 13 13 13 13 13 13 13 13
24 24 23 22 21 21 21 20 20 20 20 20 20 20 20 19 19 18 18 17 17 16 16 15 15 15 14 14 14 14 14 13 13 13 13 13 13 13 13 13 13 13 13 13
22 22 22 21 21 20 20 20 20 20 19 19 19 19 19 19 18 18 17 16 16 16 15 15 15 14 14 14 14 14 14 13 13 13 13 13 13 13 13 13 13 13 13 13
22 22 21 20 20 20 19 19 19 19 19 19 19 18 18 18 18 17 17 16 15 15 15 14 14 14 14 14 14 14 13 13 13 13 13 13 13 13 13 13 13 13 13 13
Wind_Speed
13 12 12 11 12 9 10 10 10 5 4 4 5 5 7 8 7 7 7 6 6 5 6 6 5 5 6 4 4 3 2 1 1 0 1 1 1 1 1 1 1 1 1 1
12 13 12 12 9 8 9 11 10 5 1 3 5 5 5 7 7 7 7 6 6 5 5 4 4 4 4 4 4 3 2 1 1 0 1 1 2 2 2 1 1 2 2 2
11 9 10 11 9 9 11 11 9 6 5 7 8 7 6 6 5 5 6 6 6 5 5 5 3 3 3 4 4 3 2 2 1 1 1 1 2 2 1 0 1 1 2 2
10 11 10 11 12 10 10 9 9 8 8 9 9 7 7 8 5 5 5 5 5 6 5 4 4 3 3 3 4 4 3 2 1 1 1 2 2 2 2 1 1 2 2 2
10 9 9 10 9 8 10 10 10 10 11 12 9 6 4 7 6 6 6 5 4 6 6 5 5 3 2 3 3 3 3 2 1 0 1 2 2 2 1 1 1 2 2 2
11 10 9 8 7 9 10 11 11 11 10 10 7 5 4 5 6 5 4 4 4 4 5 5 5 4 3 3 4 3 3 2 1 1 1 1 2 2 2 2 1 2 1 1
10 11 7 5 7 7 8 7 6 6 6 7 3 2 3 5 7 6 4 3 3 3 4 4 4 4 3 3 3 3 3 2 2 2 1 2 2 2 2 2 2 2 1 1
7 6 4 4 6 6 6 7 6 7 7 6 5 2 5 6 7 5 4 4 4 2 4 3 4 4 3 3 3 3 3 2 1 1 1 1 1 1 1 2 2 2 2 1
6 5 4 4 5 7 6 7 8 8 10 8 2 2 4 5 5 4 4 5 3 3 3 3 4 4 3 3 3 3 3 1 1 1 1 1 1 2 2 1 2 2 2 1
6 7 6 4 7 9 8 7 5 6 7 7 3 2 2 4 3 3 3 5 4 4 3 3 4 4 3 3 3 3 2 2 1 1 1 1 1 1 1 1 2 2 2 2
6 6 8 7 8 6 6 7 5 6 8 7 5 1 4 4 2 3 2 4 4 4 4 4 3 3 3 3 3 2 2 2 2 2 1 1 1 1 1 1 2 2 2 2
4 5 7 8 5 4 7 7 5 6 7 7 6 1 4 4 3 3 3 3 4 4 4 4 4 3 2 2 2 2 2 3 2 2 2 1 1 2 2 2 2 1 1 1
3 3 6 6 4 6 6 5 4 5 5 6 6 1 2 3 3 3 3 4 4 4 3 4 4 3 2 1 1 2 2 2 2 2 2 1 1 2 2 1 2 2 2 2
2 5 7 8 7 7 7 7 6 5 6 7 6 2 3 3 2 2 1 3 4 4 3 4 4 3 2 1 0 1 2 2 2 1 1 2 2 2 2 2 2 2 2 2
4 7 9 10 11 11 10 8 8 7 7 9 6 2 2 3 2 1 1 2 3 3 2 3 4 3 2 1 0 0 1 1 1 1 2 2 2 2 2 2 2 2 2 2
4 6 9 11 12 11 10 9 9 9 8 7 5 1 4 3 2 1 1 2 2 2 1 2 3 3 2 1 0 0 0 1 1 2 2 2 2 2 2 2 2 2 3 2
6 6 9 11 11 11 11 8 8 6 4 4 3 1 2 2 3 2 2 1 2 2 2 2 2 2 2 1 0 1 1 1 1 2 2 2 2 2 2 2 2 2 2 2
8 7 7 10 10 11 5 2 3 2 2 2 1 2 2 3 3 2 2 1 2 2 2 2 2 2 2 1 1 1 2 2 2 2 2 2 2 2 2 2 2 2 2 2
7 7 7 8 10 9 5 2 2 0 1 2 2 3 3 2 2 3 4 3 3 2 3 2 1 2 2 1 1 1 2 2 2 3 2 2 2 2 2 2 2 2 2 2
9 7 8 9 10 8 2 1 1 1 1 2 2 3 3 3 1 3 4 2 2 2 2 1 1 2 2 1 0 1 2 2 3 3 2 2 3 2 2 3 2 2 3 4
9 9 10 10 10 4 1 2 2 3 2 4 4 4 3 3 3 3 2 2 2 2 1 1 1 1 2 2 1 1 2 3 3 3 2 3 3 3 3 2 2 3 4 4
7 7 8 7 8 3 4 3 2 3 4 3 3 3 2 2 3 3 2 2 2 1 0 1 1 1 2 2 2 2 2 2 2 3 3 3 3 4 3 1 2 3 4 4
4 2 2 2 1 4 5 5 4 4 3 3 4 3 2 3 3 3 3 2 1 1 1 0 1 1 1 2 2 2 2 2 2 3 3 4 3 3 2 2 3 4 4 4
1 1 1 0 3 4 5 5 3 3 2 3 3 3 3 3 3 2 2 2 2 1 1 1 0 0 1 2 2 2 2 2 2 3 3 4 3 3 3 3 3 3 3 3
5 4 3 1 2 2 3 3 4 4 3 3 4 4 4 3 3 2 1 2 2 1 0 0 1 2 2 2 2 2 2 2 2 3 4 5 5 4 3 3 3 3 2 2
5 4 3 1 2 0 1 2 4 4 4 5 5 5 5 4 4 3 2 1 1 2 1 1 2 2 2 2 2 2 2 2 3 4 4 5 4 4 3 3 2 2 2 2
Wind_Direction
236 234 243 251 250 261 279 278 277 257 190 236 242 209 179 185 183 177 170 158 146 142 135 128 129 130 126 128 128 125 118 111 145 143 245 248 242 251 252 199 150 176 197 243
242 240 244 256 262 270 269 274 273 270 232 267 262 240 202 189 194 179 163 157 146 140 136 134 135 134 140 140 131 124 121 118 148 144 260 251 263 252 226 217 181 211 202 219
241 251 251 254 259 258 259 263 269 279 277 265 263 246 214 187 191 174 164 153 148 150 146 139 143 146 152 148 142 135 140 161 166 155 251 284 259 265 265 205 249 255 226 212
248 253 254 252 253 248 259 269 269 262 258 263 248 256 208 182 191 187 179 164 154 149 146 150 150 160 178 163 149 136 140 144 139 169 229 255 255 261 278 268 228 264 247 233
250 255 258 257 262 266 270 276 267 258 258 263 249 254 194 165 193 193 184 173 158 155 156 158 159 168 177 148 124 117 121 121 117 190 233 251 288 301 305 293 235 254 253 241
255 249 249 260 269 263 271 273 268 255 259 258 246 246 191 175 167 175 174 149 145 147 147 147 147 144 140 123 115 124 131 133 138 179 201 248 266 276 295 299 294 280 267 250
254 243 233 247 263 254 267 278 284 282 259 265 257 222 148 136 139 148 142 127 115 144 134 133 142 130 117 123 122 132 137 160 165 178 214 236 257 267 271 283 285 278 282 266
267 252 234 242 264 278 273 270 277 289 288 286 254 204 132 117 118 122 125 126 125 122 122 125 133 130 142 141 132 132 138 156 157 185 220 248 275 279 287 294 295 288 290 272
285 268 260 238 259 267 263 272 285 284 282 283 277 115 118 112 112 112 122 121 124 124 115 115 123 125 122 131 135 134 132 140 175 231 206 219 254 285 300 312 289 290 302 300
274 287 263 226 244 243 258 279 286 282 287 288 266 212 153 129 134 142 142 135 137 133 132 124 120 123 132 143 151 135 133 171 211 243 247 233 231 273 305 310 317 312 316 308
273 270 268 241 231 257 255 262 278 293 294 301 305 40 105 122 125 133 113 113 113 132 136 133 129 132 147 154 149 156 170 179 188 213 221 252 220 250 266 272 287 299 293 291
257 271 275 278 273 273 267 276 284 284 299 305 302 59 66 87 88 95 111 114 111 123 135 135 131 130 139 150 141 156 176 177 190 198 192 228 229 239 249 277 283 289 283 278
328 281 273 265 256 262 262 273 277 280 287 289 291 200 130 78 50 50 89 112 118 123 129 123 113 118 120 118 131 164 186 182 194 197 191 211 237 252 252 266 274 272 270 260
276 262 265 274 285 292 280 284 280 271 281 281 284 224 162 105 99 50 67 118 126 126 127 117 106 98 96 89 118 196 204 194 204 202 210 206 234 251 243 235 247 250 255 251
254 262 264 268 274 273 273 276 281 278 269 274 280 286 87 97 84 78 162 133 125 119 118 113 106 102 101 84 51 258 210 191 191 205 222 213 218 234 234 226 228 234 254 264
221 266 278 278 277 278 277 270 265 269 271 272 276 328 86 86 88 90 125 136 133 120 105 104 106 111 109 91 244 323 242 204 200 225 238 226 210 226 233 223 204 214 235 256
241 247 269 273 278 285 274 269 267 278 292 292 282 349 94 89 66 58 54 133 143 139 109 97 109 117 122 137 292 277 281 251 239 248 253 246 213 220 228 235 223 230 244 254
258 257 261 271 277 273 275 290 270 292 351 350 27 42 59 74 83 80 61 86 114 118 110 99 109 130 140 162 198 235 242 243 242 251 252 249 235 227 221 219 223 237 247 258
225 240 256 265 269 267 253 272 315 291 23 29 31 34 38 65 105 82 63 68 80 80 82 86 122 140 135 135 178 241 270 269 267 267 263 263 254 241 235 238 239 236 241 252
210 209 241 258 271 279 274 343 329 209 199 53 56 38 27 27 347 59 65 66 79 75 93 104 152 150 142 150 182 245 277 285 285 285 287 287 281 269 260 251 244 237 240 242
211 218 233 249 261 265 7 22 283 254 107 52 43 41 21 17 9 35 52 46 67 81 120 162 181 171 159 153 152 264 278 282 290 302 300 291 284 275 251 239 237 247 246 250
238 242 244 251 256 252 39 28 42 70 69 45 26 23 17 20 34 19 30 42 58 53 91 169 169 178 161 167 190 245 269 289 303 303 295 292 288 280 273 228 247 254 250 246
249 272 292 325 88 92 80 79 89 95 67 23 357 348 352 7 16 10 4 8 27 55 101 126 188 170 156 173 199 244 269 284 291 299 303 300 295 289 285 254 247 250 254 256
272 22 257 201 120 88 68 62 51 62 48 5 348 337 353 352 351 351 350 354 355 36 75 48 19 213 212 207 225 234 251 254 271 289 294 288 279 268 261 255 260 260 266 263
318 304 287 230 117 86 65 41 4 8 5 353 340 338 345 344 331 334 337 352 352 358 25 298 267 263 256 235 243 248 259 248 261 267 268 271 264 260 254 247 264 273 281 274
286 287 270 272 108 73 31 16 350 345 339 339 334 325 328 332 332 338 353 2 350 343 313 281 273 271 270 265 264 268 261 263 271 266 265 271 268 254 247 250 257 247 238 189
Height
1466 1468 1467 1462 1458 1458 1459 1461 1463 1458 1455 1460 1463 1465 1468 1470 1473 1475 1479 1482 1486 1489 1491 1494 1496 1497 1497 1497 1497 1497 1498 1497 1497 1498 1498 1498 1499 1499 1499 1499 1499 1499 1498 1498
1463 1464 1458 1453 1452 1454 1457 1463 1461 1456 1453 1458 1462 1464 1463 1467 1470 1473 1476 1480 1484 1487 1490 1492 1494 1495 1495 1496 1495 1496 1496 1496 1496 1496 1497 1497 1497 1498 1498 1498 1497 1496 1496 1496
1461 1456 1451 1452 1454 1456 1457 1458 1457 1458 1455 1455 1462 1467 1466 1465 1468 1472 1475 1479 1481 1484 1487 1490 1491 1493 1494 1494 1493 1493 1494 1494 1494 1494 1495 1495 1495 1496 1496 1496 1495 1494 1494 1494
1454 1449 1449 1451 1452 1453 1459 1450 1451 1454 1460 1464 1462 1477 1469 1466 1469 1471 1474 1477 1480 1483 1485 1487 1489 1491 1492 1492 1491 1492 1492 1492 1492 1492 1492 1493 1493 1493 1493 1494 1493 1493 1492 1492
1450 1446 1448 1450 1448 1448 1451 1445 1447 1450 1455 1460 1459 1471 1473 1467 1473 1471 1472 1475 1478 1480 1483 1486 1487 1489 1490 1490 1490 1490 1490 1491 1490 1490 1491 1491 1491 1492 1492 1492 1491 1491 1491 1490
1444 1443 1443 1445 1443 1444 1443 1444 1445 1446 1452 1469 1462 1470 1476 1468 1469 1470 1471 1473 1477 1479 1482 1484 1485 1487 1488 1488 1489 1490 1489 1489 1489 1489 1489 1490 1490 1490 1490 1490 1489 1489 1489 1488
1447 1442 1440 1442 1446 1444 1445 1455 1467 1471 1474 1472 1457 1465 1473 1461 1463 1467 1470 1472 1476 1478 1480 1483 1485 1486 1487 1488 1488 1488 1488 1488 1488 1488 1488 1488 1488 1488 1488 1488 1488 1488 1487 1487
1455 1453 1442 1442 1446 1449 1448 1455 1473 1486 1481 1469 1459 1466 1464 1458 1462 1466 1469 1471 1475 1478 1479 1482 1485 1486 1487 1487 1487 1487 1486 1487 1487 1487 1487 1487 1487 1487 1487 1486 1486 1486 1486 1485
1456 1456 1442 1440 1442 1445 1450 1451 1449 1462 1465 1469 1467 1467 1463 1461 1463 1466 1469 1471 1474 1478 1479 1482 1484 1485 1486 1486 1486 1486 1486 1485 1485 1485 1485 1486 1486 1486 1486 1485 1485 1485 1484 1484
1450 1458 1445 1441 1443 1441 1443 1446 1453 1463 1475 1478 1471 1470 1473 1467 1467 1467 1468 1471 1473 1477 1480 1482 1484 1484 1485 1486 1486 1486 1485 1484 1484 1484 1484 1485 1484 1484 1484 1484 1483 1483 1483 1482
1447 1459 1452 1443 1446 1447 1446 1448 1451 1456 1458 1472 1479 1479 1461 1464 1465 1466 1467 1470 1473 1476 1479 1481 1482 1483 1484 1485 1485 1485 1484 1483 1483 1483 1483 1483 1483 1483 1483 1482 1482 1482 1481 1481
1446 1453 1457 1448 1439 1438 1442 1446 1451 1467 1468 1463 1471 1479 1461 1462 1464 1465 1467 1470 1473 1476 1479 1480 1482 1482 1483 1484 1484 1484 1483 1483 1483 1482 1482 1482 1482 1481 1481 1481 1481 1481 1480 1480
1450 1457 1467 1460 1454 1446 1445 1444 1448 1455 1462 1468 1476 1479 1462 1463 1465 1467 1468 1470 1473 1476 1478 1479 1481 1482 1482 1483 1483 1482 1482 1482 1482 1482 1482 1481 1481 1480 1480 1480 1480 1479 1479 1479
1452 1457 1465 1472 1463 1453 1451 1447 1446 1454 1464 1467 1466 1467 1463 1463 1465 1467 1469 1471 1473 1475 1477 1478 1480 1481 1481 1481 1481 1481 1481 1481 1481 1481 1480 1480 1479 1479 1478 1478 1478 1478 1478 1478
1452 1457 1455 1453 1448 1447 1447 1448 1448 1451 1455 1461 1459 1460 1461 1462 1464 1467 1469 1471 1473 1475 1476 1478 1479 1480 1481 1481 1481 1480 1480 1480 1480 1480 1480 1479 1478 1477 1477 1477 1477 1477 1477 1477
1451 1457 1456 1455 1448 1444 1446 1444 1445 1448 1448 1450 1453 1458 1458 1461 1464 1466 1468 1470 1472 1474 1476 1477 1478 1479 1479 1479 1480 1480 1479 1479 1479 1479 1478 1478 1477 1476 1476 1476 1475 1475 1475 1475
1450 1455 1460 1460 1450 1448 1453 1444 1444 1446 1445 1449 1456 1458 1457 1460 1463 1466 1468 1470 1472 1474 1475 1476 1477 1477 1478 1478 1478 1478 1478 1478 1478 1477 1477 1477 1476 1476 1475 1475 1474 1474 1474 1474
1449 1454 1457 1458 1459 1470 1452 1439 1441 1445 1448 1449 1452 1454 1457 1460 1464 1466 1468 1470 1471 1473 1474 1475 1476 1476 1476 1477 1477 1477 1477 1477 1477 1476 1476 1475 1475 1474 1474 1473 1473 1473 1472 1472
1444 1451 1456 1459 1460 1455 1447 1442 1443 1448 1453 1451 1454 1456 1458 1460 1463 1466 1468 1470 1471 1472 1473 1474 1475 1475 1475 1475 1475 1476 1476 1475 1475 1475 1474 1474 1474 1473 1472 1472 1471 1471 1471 1470
1440 1446 1455 1456 1463 1465 1452 1444 1445 1450 1458 1455 1456 1458 1460 1461 1465 1468 1469 1470 1471 1472 1472 1473 1473 1474 1474 1474 1474 1474 1474 1474 1474 1473 1473 1473 1472 1472 1471 1470 1470 1469 1469 1468
1446 1448 1452 1455 1459 1455 1448 1446 1447 1459 1464 1458 1459 1460 1462 1464 1467 1468 1468 1469 1470 1471 1471 1472 1472 1472 1472 1472 1472 1473 1473 1472 1472 1472 1471 1471 1470 1470 1469 1469 1468 1467 1467 1466
1443 1447 1449 1451 1459 1461 1450 1449 1455 1460 1459 1460 1461 1462 1463 1464 1466 1467 1468 1468 1469 1469 1470 1470 1470 1470 1470 1471 1471 1471 1471 1471 1471 1470 1469 1469 1468 1468 1468 1467 1466 1466 1465 1464
1439 1442 1443 1448 1455 1454 1453 1455 1457 1458 1460 1461 1463 1464 1464 1464 1465 1467 1468 1468 1468 1468 1468 1468 1469 1469 1469 1469 1469 1469 1469 1469 1469 1468 1467 1466 1466 1466 1465 1465 1464 1464 1463 1463
1438 1440 1443 1448 1450 1453 1455 1457 1459 1460 1461 1462 1463 1463 1463 1464 1465 1466 1467 1467 1467 1467 1466 1467 1467 1467 1467 1467 1467 1467 1467 1467 1467 1466 1465 1465 1464 1463 1463 1463 1462 1462 1462 1461
1443 1443 1444 1448 1452 1453 1455 1458 1460 1460 1461 1462 1463 1463 1463 1464 1464 1465 1465 1466 1466 1466 1465 1465 1465 1466 1465 1466 1466 1466 1466 1465 1465 1464 1464 1463 1462 1462 1461 1461 1460 1460 1459 1459
1444 1445 1447 1451 1453 1455 1458 1459 1460 1461 1461 1462 1462 1463 1463 1463 1462 1463 1464 1464 1464 1464 1464 1464 1464 1464 1463 1464 1464 1464 1464 1463 1463 1462 1462 1461 1460 1460 1460 1459 1459 1458 1458 1457